COSMOS 1275 DEB

Satellite information

Favourite Embed

Satellite Type and Status

DEBRISIN ORBIT

Key statistics

Satellite COSMOS 1275 DEB at a glance.

Uptime

16165

Days in orbit

Revolutions

≈ 14.2

Per day

Orbit

LEO

Low Earth Orbit

Inclination

83.0

Latest

Satellite identification and parameters

Extended collection of information and parameters for COSMOS 1275 DEB.

Object identification

Identified? True

Debris? True

Object name: COSMOS 1275 DEB

International designator: 1981-053EE

Object number (NORAD): 12950

Object ID (CCSDS): 12950

Country: COMMONWEALTH OF INDEPENDENT STATES (CIS)

Current information (Y/N): Y

RCS size: SMALL

Orbital parameters

Period: 101.65 minutes

Inclination: 83.0102 deg

SMA: 7214.935 km

Apoapsis: 875.294 km

Periapsis: 798.306 km

RAAN: 303.1467 deg

Eccentricy: 0.00533528

Argument of periapsis: 65.189 deg

Mean anomaly: 112.6437 deg

Mean motion: 14.16622455 rev/day

Mean motion (dot): 0.00001134 rev/day2

B* drag term: 0.00055240973 1/REarth

Two-line elements (TLE)

Creation date: Sept. 6, 2025, 2:09 a.m.

Reference frame: TEME

Reference center: EARTH

Epoch: Sept. 5, 2025, 9:21 p.m. UTC

TLE line 0: 0 COSMOS 1275 DEB

TLE line 1: 1 12950U 81053EE 25248.89024102 .00001134 00000-0 55241-3 0 9990

TLE line 2: 2 12950 83.0102 303.1467 0053353 65.1890 112.6437 14.16622455260463

Live tracking on map

Real-time ground track for satellite COSMOS 1275 DEB.

In-orbit conjunctions

A list of the most updated potential collisions computed for object COSMOS 1275 DEB.

Target Orbit TCA Probability of collision Miss distance Type
FENGYUN 1C DEB SSO 2025-05-16 11:39:11 0.0001257844 76.0 (m) DEBRIS
FENGYUN 1C DEB SSO 2024-11-05 17:40:28 0.0001616587 194.0 (m) DEBRIS

Associated space launch

Navigation satellite providing location information for the Tsiklon-B navigation system

COSMOS 1275 DEB was lifted into orbit during the mission ‘Kosmos-3M | Parus 27’, on board a Kosmos-3M space rocket.

The launch took place on June 4, 1981, 3:41 p.m. from 132/2.

For more information about the launch, click the button.

Launch to space Kosmos-3M | Parus 27
Kosmos-3M | Parus 27

Agency: N/A

Status: Launch Successful

Launch date: June 4, 1981, 3:41 p.m. UTC

Rocket: Kosmos-3M

Launch pad: 132/2

Location: Plesetsk Cosmodrome, Russian Federation

...

Latest news about this satellite

There are no fresh news available about this satellite. Check back as we update our databases every day.


Newsletter sign-up

Weekly statistics, charts and insights to help you stay on top of the space industry.